Hourly Data Report for August 30, 2020

OTTAWA INTL A
ONTARIO
Current Station Operator: NAVCAN

45°19'00.000" N
75°40'00.000" W
114.90 m
6106001
71628
YOW

Download Data

Hourly Data (August 2020)
Hourly Data Report for August 30, 2020
TIME
LST
Temp Definition
°C
Dew Point Definition
°C
Rel Hum Definition
%
Precip. Amount Definition
mm

Wind Dir Definition
10's deg

Wind Spd Definition
km/h
Visibility Definition
km
Stn Press Definition
kPa
Hmdx Definition


Wind Chill Definition


Weather Definition


00:00 14.2 12.5 89   28 22 24.1 98.60     Drizzle
01:00 14.3 11.4 83   30 23 24.1 98.68     Cloudy
02:00 13.1 10.4 84   30 21 24.1 98.73     LegendNANA
03:00 12.7 11.3 91   28 22 24.1 98.77     LegendNANA
04:00 12.8 11.2 90   29 23 24.1 98.85     Mostly Cloudy
05:00 12.4 10.5 88   30 20 24.1 98.97     LegendNANA
06:00 12.5 10.6 88   29 15 24.1 99.07     LegendNANA
07:00 13.4 10.2 81   29 23 24.1 99.21     Mainly Clear
08:00 14.6 10.9 78   30 22 24.1 99.31     LegendNANA
09:00 15.7 9.7 67   30 29 24.1 99.42     LegendNANA
10:00 17.0 10.5 66   31 21 24.1 99.48     Mainly Clear
11:00 17.9 9.7 58   31 22 24.1 99.50     LegendNANA
12:00 19.1 8.1 48   31 19 24.1 99.55     LegendNANA
13:00 18.8 8.9 52   31 10 24.1 99.60     Mostly Cloudy
14:00 19.9 9.9 52   27 21 24.1 99.60     LegendNANA
15:00 19.9 10.0 52   30 23 24.1 99.62     LegendNANA
16:00 20.0 10.3 53   29 25 24.1 99.67     Mostly Cloudy
17:00 18.8 10.4 58   27 24 24.1 99.74     LegendNANA
18:00 15.8 13.8 88   32 12 24.1 99.82     LegendNANA
19:00 15.6 12.6 82   32 15 24.1 99.89     Mostly Cloudy
20:00 15.0 11.6 80   30 11 24.1 99.95     LegendNANA
21:00 13.4 10.6 83   28 8 24.1 100.00     LegendNANA
22:00 12.2 10.4 88   29 9 24.1 100.05     Mainly Clear
23:00 12.4 11.3 93   30 10 24.1 100.10     LegendNANA

Notes on Data Quality.

Legend

  • E = Estimated
  • M = Missing
  • NA = Not Available*
  • [empty] = Indicates an unobserved value
Date modified: